Location: Cazarilh
(42.9578°N, 0.5819°E)
Time: 00:53:33
(UTC+00:00)

COSMO-SKYMED 1 - Pass Details

Date: 11 December 2019
Orbit: 621 x 623 km, 97.9° (Epoch: 17 January)

Event Time Altitude Azimuth Distance (km) Brightness Sun altitude
Rises 05:59:27 0° 195° (SSW) 2,890 6.0 -13.9°
Reaches altitude 10° 06:01:56 10° 209° (SSW) 1,989 5.1 -13.5°
Maximum altitude 06:05:32 25° 265° (W) 1,259 3.6 -12.8°
Enters shadow 06:07:45 17° 307° (NW) 1,582 4.1 -12.5°
